CENTAURI-2 (43722 NORAD) Tracking and Keplerian Element Data

This shows tracking and keplerian element data for the satellite.

Feedback or suggestion? Click here.




ElementValue
Catalog43722
NameCENTAURI-2
Epoch Orbit803
Epoch Day20.8871436
Epoch Year2019
RAAN90.9074
Inclination97.4785
Eccentricity0.0019679
Argument of Perigee132.2423
Mean Anonmoly228.0488
Mean Motion15.25943986
Decay Rate1.308E-05
L11 43722U 18096D 19020.88714360 .00001308 00000-0 53606-4 0 9997
L22 43722 97.4785 90.9074 0019679 132.2423 228.0488 15.25943986 8033

Live tracking and technical data element details for CENTAURI-2 (NORAD 43722). CENTAURI-2 can be tracked NOW for your location showing map with azimuth and elevation plus other details from your city location.

Track the satellite on the map from your city or location and see movement details for azimuth, elevation, latitude, longitude, range, height, and movement on the map or in text.







IsCatalogInMostPopularTable: catalog: 43722, numindb: 21
Update: records affected: 1



GetName: 43722 CENTAURI-2

Hit Count: updated at: Wed, 23 Jan 2019 03:19:15 GMT